Location: Chochol
(49.7771°N, 14.9780°E)
Time: 14:06:43
(UTC+00:00)

Cosmos 2366 rocket - Pass Details

Date: 09 April 2020
Orbit: 956 x 996 km, 82.9° (Epoch: 02 June)

Event Time Altitude Azimuth Distance (km) Brightness Sun altitude
Rises 19:35:18 0° 350° (N) 3,649 7.7 -17.0°
Reaches altitude 10° 19:37:48 10° 352° (N) 2,699 6.9 -17.3°
Maximum altitude 19:43:59 82° 80° (E) 974 3.9 -18.1°
Enters shadow 19:48:09 22° 167° (SSE) 1,955 5.1 -18.6°
